Weather History for Meknes, Morocco

Change the Weather History Date:

Thursday, May 23, 2013

  Actual Average Record
Temperature  
Mean Temperature 61 °F -  
Max Temperature 76 °F - - ()
Min Temperature 46 °F - - ()
Degree Days  
Heating Degree Days 4    
Growing Degree Days 11 (Base 50)    
Moisture  
Dew Point 44 °F    
Average Humidity 57    
Maximum Humidity 94    
Minimum Humidity 19    
Precipitation  
Precipitation 0.00 in - - ()
Sea Level Pressure  
Sea Level Pressure 30.09 in    
Wind  
Wind Speed 4 mph ()    
Max Wind Speed 9 mph    
Max Gust Speed -    
Visibility 6.8 miles    
Events      
T = Trace of Precipitation, MM = Missing Value Source: Averaged Metar Reports

Daily Weather History Graph

Daily Weather History Graph

Search for Another Location

Airport:

Trip Planner

Search our weather history database for the weather conditions in past years. The results will help you decide how hot, cold, wet, or windy it might be!

Date:

Astronomy

May. 23, 2013 Rise Set
Actual Time 6:15 AM WEST 8:22 PM WEST
Civil Twilight 5:47 AM WEST 8:50 PM WEST
Nautical Twilight 5:13 AM WEST 9:24 PM WEST
Astronomical Twilight 4:36 AM WEST 10:01 PM WEST
Moon 6:42 PM WEST (5/23) 4:45 AM WEST (5/23)
Length of Visible Light 15h 02m
Length of Day
14h 06m
Waxing Gibbous, 96% of the Moon is Illuminated
May 23
Waxing Gibbous
May 25
Full
May 31
Last Quarter
Jun 8
New
Jun 16
First Quarter

Hourly Weather History & Observations

Time (WEST) Temp. Windchill Dew Point Humidity Pressure Visibility Wind Dir Wind Speed Gust Speed Precip Events Conditions
12:00 AM 53.6 °F - 50.0 °F 88% 30.15 in - SSW 3.5 mph - N/A   Clear
1:00 AM 51.8 °F - 50.0 °F 94% 30.15 in - SW 4.6 mph - N/A   Clear
2:00 AM 50.0 °F - 48.2 °F 94% - - SSW 3.5 mph - N/A   Clear
3:00 AM 50.0 °F - 48.2 °F 94% 30.12 in - North - - N/A   Clear
4:00 AM 49 °F - 47 °F 89% 30.12 in 6 mi South 3.5 mph - -  
4:00 AM 48.2 °F - 46.4 °F 93% 30.09 in - South 3.5 mph - N/A   Clear
5:00 AM 48.2 °F - 46.4 °F 93% 30.09 in - SSE 2.3 mph - N/A   Clear
6:00 AM 46.4 °F 45.2 °F 44.6 °F 93% 30.09 in - South 3.5 mph - N/A   Clear
7:00 AM 48 °F - 45 °F 87% 30.13 in 6 mi South 3.5 mph - -  
7:00 AM 48.2 °F - 44.6 °F 87% 30.12 in - South 3.5 mph - N/A   Clear
8:00 AM 55.4 °F - 50.0 °F 82% 30.12 in - SSE 2.3 mph - N/A   Clear
9:00 AM 62.6 °F - 44.6 °F 52% 30.12 in - SE 3.5 mph - N/A   Clear
10:00 AM 67 °F - 37 °F 22% 30.07 in 6 mi East 2.3 mph - -  
10:00 AM 66.2 °F - 37.4 °F 35% 30.12 in - East 2.3 mph - N/A   Clear
11:00 AM 69.8 °F - 37.4 °F 31% 30.12 in - ESE 2.3 mph - N/A   Clear
12:00 PM 69.8 °F - 37.4 °F 31% 30.12 in - North 3.5 mph - N/A   Clear
1:00 PM 72 °F - 39 °F 19% 30.05 in 6 mi NW 4.6 mph - -  
1:00 PM 71.6 °F - 39.2 °F 31% 30.12 in - NW 4.6 mph - N/A   Clear
2:00 PM 73.4 °F - 39.2 °F 29% 30.09 in 6.2 mi NW 3.5 mph - N/A   Partly Cloudy
3:00 PM 75.2 °F - 39.2 °F 27% 30.09 in 6.2 mi NW 6.9 mph - N/A   Partly Cloudy
4:00 PM 75 °F - 41 °F 19% 29.99 in 9 mi NNW 8.1 mph - -   Scattered Clouds
4:00 PM 75.2 °F - 41.0 °F 29% 30.06 in 6.2 mi NNW 8.1 mph - N/A   Partly Cloudy
5:00 PM 75.2 °F - 42.8 °F 31% 30.06 in 6.2 mi NW 8.1 mph - N/A   Partly Cloudy
6:00 PM 75.2 °F - 41.0 °F 29% 30.04 in 6.2 mi NW 9.2 mph - N/A   Partly Cloudy
7:00 PM 72 °F - 43 °F 24% 29.96 in 9 mi NW 8.1 mph - -  
7:00 PM 73.4 °F - 42.8 °F 33% 30.04 in - NW 8.1 mph - N/A   Clear
8:00 PM 68.0 °F - 51.8 °F 56% 30.04 in - NW 9.2 mph - N/A   Clear
9:00 PM 64.4 °F - 50.0 °F 59% 30.06 in - NW 8.1 mph - N/A   Clear
10:00 PM 59 °F - 51 °F 67% 30.06 in 9 mi West 5.8 mph - -  
10:00 PM 59.0 °F - 51.8 °F 77% 30.09 in - West 5.8 mph - N/A   Clear
11:00 PM 57.2 °F - 50.0 °F 77% 30.09 in - WSW 4.6 mph - N/A   Clear